Date,TemperatureHighF,TemperatureAvgF,TemperatureLowF,DewpointHighF,DewpointAvgF,DewpointLowF,HumidityHigh,HumidityAvg,HumidityLow,PressureMaxIn,PressureMinIn,WindSpeedMaxMPH,WindSpeedAvgMPH,GustSpeedMaxMPH,PrecipitationSumIn
2013-8-1,85.0,77.2,69.0,52.0,48.6,46.0,52,37,26,0.00,40.00,20,10,30,0.00
2013-8-2,72.0,67.3,62.0,60.0,54.9,50.0,83,65,54,0.00,40.00,13,7,18,0.00
2013-8-3,82.0,69.7,59.0,60.0,57.0,53.0,96,68,38,0.00,40.00,10,5,15,0.00
2013-8-4,91.0,78.6,65.0,57.0,53.1,48.0,72,45,23,0.00,40.00,8,4,14,0.00
2013-8-5,95.0,82.0,70.0,57.0,52.8,43.0,61,38,21,0.00,40.00,12,7,18,0.00
2013-8-6,99.0,84.6,70.0,49.0,43.3,33.0,45,25,10,0.00,40.00,13,7,20,0.00
2013-8-7,99.0,85.5,67.0,44.0,37.1,32.0,43,19,10,0.00,40.00,20,8,28,0.00
2013-8-8,97.0,82.7,68.0,48.0,40.5,34.0,47,23,12,0.00,40.00,20,7,28,0.00
2013-8-9,97.0,84.5,71.0,55.0,50.1,44.0,55,32,16,0.00,40.00,24,7,35,0.00
2013-8-10,94.0,82.2,68.0,58.0,52.4,48.0,67,38,20,0.00,40.00,24,8,37,0.00
2013-8-11,91.0,80.8,66.0,57.0,51.9,38.0,67,39,16,0.00,40.00,14,7,20,0.00
2013-8-12,92.0,77.8,64.0,53.0,49.4,43.0,65,40,18,0.00,40.00,14,6,20,0.00
2013-8-13,94.0,80.8,67.0,53.0,47.6,40.0,58,35,15,0.00,40.00,14,7,18,0.00
2013-8-14,97.0,83.3,67.0,52.0,45.2,40.0,58,30,14,0.00,40.00,16,5,22,0.00
2013-8-15,96.0,76.4,70.0,55.0,35.0,-99.9,45,27,16,0.00,40.00,18,7,27,0.00
2013-8-16,90.0,80.3,71.0,54.0,51.2,47.0,53,37,23,0.00,40.00,12,7,20,0.00
2013-8-17,92.0,76.8,70.0,57.0,45.5,-99.9,61,38,22,0.00,40.00,18,10,28,0.00
2013-8-18,92.0,77.3,66.0,52.0,48.1,42.0,54,37,17,0.00,40.00,18,9,28,0.00
2013-8-19,92.0,71.9,63.0,52.0,35.3,-99.9,60,34,19,0.00,40.00,17,9,25,0.00
2013-8-20,89.0,76.7,66.0,49.0,43.7,34.0,54,33,14,0.00,40.00,17,10,24,0.00
2013-8-21,93.0,78.3,64.0,47.0,39.8,34.0,53,28,12,0.00,40.00,12,8,14,0.00
2013-8-22,93.0,82.2,68.0,43.0,38.8,33.0,38,22,12,0.00,40.00,10,6,14,0.00
2013-8-23,89.0,79.5,67.0,52.0,47.8,40.0,47,34,21,0.00,40.00,15,6,22,0.00
2013-8-24,88.0,72.0,64.0,51.0,41.4,-99.9,60,38,20,0.00,40.00,17,7,23,0.00
2013-8-25,85.0,73.2,65.0,60.0,48.2,44.0,83,44,23,0.00,40.00,17,7,24,0.00
2013-8-26,84.0,70.2,58.0,57.0,53.7,47.0,93,60,27,0.00,40.00,12,5,20,0.00
2013-8-27,81.0,69.9,62.0,51.0,48.4,47.0,62,47,31,0.00,40.00,10,5,13,0.00
2013-8-28,91.0,85.4,77.0,54.0,50.6,48.0,44,30,22,0.00,40.00,10,6,21,0.00
2013-8-29,90.0,80.1,69.0,57.0,52.3,47.0,65,40,23,0.00,40.00,22,11,35,0.00
2013-8-30,88.0,77.8,69.0,54.0,48.5,40.0,58,38,19,0.00,40.00,17,10,27,0.00
2013-8-31,91.0,73.8,63.0,51.0,39.5,-99.9,62,35,18,0.00,40.00,10,8,13,0.00